[[{"header":{"parameterUnit":"m.s-1","parameterCategory":1,"la1":30.2991,"la2":30.254,"lo1":-89.0895,"lo2":-89.0444,"dy":0.0017,"dx":0.0017,"nx":28,"ny":28,"refTime":"2024-04-01T21:00:00:Z","depth":0,"parameterNumber":2,"parameterNumberName":"U-component_of_WINDS"},"data":[0,0,0,0,0,0,0,0,0,0,0,0,0,0,0,0,0,0,0,0,0,0,0,0,0,0,0,0,0,0,0,0,0,0,0,0,0,0,0,0,0,0,0,0,0,0,0,0,0,0,0,0,0,0,0,0,0,0,-3.6627,-3.6628,0,-3.6683,-3.6683,-3.6684,-3.6651,-3.6649,-3.6647,-3.6646,-3.6701,-3.6704,-3.6707,0,0,0,0,0,0,0,0,0,0,0,0,0,-3.6492,-3.6495,-3.6627,-3.6628,-3.6629,-3.6683,-3.6683,-3.6684,-3.6651,-3.6649,-3.6647,-3.6645,-3.67,-3.6704,-3.6707,0,0,0,0,0,0,0,0,0,0,0,0,0,-3.655,-3.6496,-3.6627,-3.6619,-3.6618,-3.6682,-3.6683,-3.6684,-3.6651,-3.6649,-3.6646,-3.6644,-3.6699,-3.6704,-3.6708,-3.6783,0,0,-3.6721,-3.6723,0,0,0,0,0,0,0,0,-3.6546,-3.6555,-3.6619,-3.6619,-3.6619,-3.6657,-3.6656,-3.6717,-3.6652,-3.6639,-3.6646,-3.6643,-3.6689,-3.6694,-3.6709,-3.6786,-3.6788,-3.6722,-3.6725,-3.6726,-3.6728,0,0,0,0,0,0,0,-3.6542,-3.6552,-3.6649,-3.662,-3.662,-3.6612,-3.6617,-3.6668,-3.6676,-3.664,-3.6637,-3.6645,-3.6688,-3.6705,-3.671,-3.6789,-3.6722,-3.6726,-3.6728,-3.673,-3.693,-3.6933,0,0,0,0,0,0,-3.6539,-3.6549,-3.6647,-3.6651,-3.6576,-3.6616,-3.6622,-3.6647,-3.6676,-3.6678,-3.6646,-3.6643,-3.6699,-3.6705,-3.6712,-3.6802,-3.6726,-3.6731,-3.6733,-3.6928,-3.6931,-3.6934,0,0,0,0,0,0,-3.6536,-3.6548,-3.6645,-3.6599,-3.6611,-3.6621,-3.665,-3.665,-3.6667,-3.6681,-3.6682,-3.6662,-3.6697,-3.6706,-3.6766,-3.6803,-3.6733,-3.6737,-3.6924,-3.6929,-3.6932,-3.6981,0,0,0,0,0,0,-3.6533,-3.6548,-3.6576,-3.66,-3.6614,-3.6698,-3.6652,-3.6653,-3.6675,-3.667,-3.6696,-3.6698,-3.6696,-3.6759,-3.677,-3.6808,-3.674,-3.6921,-3.6926,-3.6931,-3.6976,-3.6987,-3.6995,0,0,0,0,0,-3.6528,-3.6587,-3.6578,-3.659,-3.665,-3.67,-3.6708,-3.6705,-3.6678,-3.6706,-3.6716,-3.6697,-3.6798,-3.6766,-3.6778,-3.6817,-3.6919,-3.6925,-3.6931,-3.6972,-3.6985,-3.6995,0,0,0,0,0,0,-3.6566,-3.659,-3.658,-3.6649,-3.6673,-3.6694,-3.673,-3.6718,-3.6749,-3.6744,-3.6738,-3.6745,-3.6807,-3.6819,-3.6782,-3.6892,-3.6854,-3.6863,-3.6882,-3.6893,-3.6903,-3.6898,-3.6744,0,0,0,0,0,-3.6583,-3.6623,-3.6641,-3.67,-3.6713,-3.672,-3.6742,-3.6738,-3.6762,-3.6772,-3.6785,-3.681,-3.6847,-3.6871,-3.6906,-3.6979,-3.6984,-3.7012,-3.7022,-3.7029,-3.7036,-3.7075,-3.7088,-3.6953,-3.6953,-3.6953,0,0,-3.6617,-3.6635,-3.666,-3.6708,-3.6726,-3.6767,-3.6728,-3.6773,-3.6803,-3.6778,-3.6835,-3.6847,-3.6874,-3.694,-3.697,-3.6952,-3.7075,-3.7037,-3.7043,-3.7045,-3.7083,-3.7095,-3.7107,-3.6957,-3.6957,-3.6956,0,0,-3.67,-3.6719,-3.6769,-3.6789,-3.6817,-3.6822,-3.6834,-3.6859,-3.6865,-3.6923,-3.6905,-3.6941,-3.7005,-3.7025,-3.7043,-3.7137,-3.712,-3.7148,-3.7196,-3.7235,-3.7245,-3.7254,-3.7287,-3.7298,-3.7156,-3.7156,-3.7156,0,-3.6739,-3.68,-3.6797,-3.6843,-3.6865,-3.6846,-3.6897,-3.6916,-3.6955,-3.697,-3.6949,-3.703,-3.7046,-3.7117,-3.714,-3.7156,-3.717,-3.7144,-3.7244,-3.7253,-3.7262,-3.7292,-3.7305,-3.7159,-3.7158,-3.7158,-3.7158,0,-3.6846,-3.6888,-3.6926,-3.6964,-3.699,-3.7039,-3.7044,-3.7071,-3.7065,-3.7072,-3.7131,-3.7151,-3.719,-3.7207,-3.7201,-3.7278,-3.7265,-3.7245,-3.7206,-3.7278,-3.7306,-3.7318,-3.7163,-3.7162,-3.7161,-3.716,0,0,-3.6952,-3.6989,-3.7003,-3.702,-3.7051,-3.7084,-3.7132,-3.7171,-3.7193,-3.7222,-3.7261,-3.7317,-3.7299,-3.732,-3.7317,-3.7351,-3.7422,-3.7326,-3.7326,-3.7342,-3.7506,-3.752,-3.7534,-3.7413,-3.7415,-3.7417,-3.7504,0,-3.7036,-3.712,-3.712,-3.7197,-3.7236,-3.722,-3.7262,-3.7286,-3.7294,-3.7329,-3.7338,-3.7377,-3.735,-3.7363,-3.7396,-3.7406,-3.7455,-3.74,-3.7449,-3.745,-3.744,-3.7549,-3.7563,-3.7644,-3.7515,-3.7517,-3.7518,0,-3.7144,-3.7176,-3.7257,-3.7283,-3.73,-3.7337,-3.7373,-3.7407,-3.7433,-3.7437,-3.7462,-3.7454,-3.7503,-3.7465,-3.7533,-3.7496,-3.7516,-3.7525,-3.7528,-3.753,-3.7487,-3.7553,-3.767,-3.7681,-3.7536,-3.7535,-3.7533,0,-3.7211,-3.7275,-3.7332,-3.7347,-3.7379,-3.7406,-3.7421,-3.7445,-3.7469,-3.75,-3.7515,-3.7552,-3.7572,-3.7601,-3.7603,-3.7576,-3.7671,-3.7634,-3.7675,-3.7675,-3.7693,-3.7692,-3.7814,-3.771,-3.771,-3.771,-3.771,0,-3.7304,-3.7354,-3.7363,-3.7397,-3.7453,-3.7454,-3.7509,-3.7521,-3.7544,-3.7581,-3.757,-3.7605,-3.7607,-3.7643,-3.7645,-3.77,-3.771,-3.7714,-3.7713,-3.7713,-3.7713,-3.7725,-3.7718,-3.7713,-3.7712,-3.7712,-3.7711,0,-3.7387,-3.7395,-3.7456,-3.7482,-3.749,-3.753,-3.7552,-3.7585,-3.7594,-3.7641,-3.7652,-3.7664,-3.7706,-3.7713,-3.7761,-3.7763,-3.7829,-3.7824,-3.782,-3.7818,-3.7858,-3.7854,-3.7991,-3.8008,-3.7895,-3.7896,-3.7897,0,-3.7444,-3.7483,-3.7513,-3.7537,-3.7554,-3.7593,-3.7617,-3.7619,-3.7645,-3.7679,-3.7708,-3.7749,-3.7782,-3.785,-3.7863,-3.7901,-3.7895,-3.7941,-3.79,-3.79,-3.7894,-3.7891,-3.7894,-3.7948,-3.7949,-3.795,-3.7951,0,-3.7545,-3.7547,-3.7583,-3.762,-3.7649,-3.7679,-3.7706,-3.7727,-3.7733,-3.7763,-3.7805,-3.7831,-3.7882,-3.7922,-3.796,-3.7975,-3.7964,-3.7964,-3.7975,-3.7974,-3.797,-3.7971,-3.7839,-3.796,-3.7959,-3.7958,-3.7958,-3.7957,-3.7616,-3.7649,-3.7676,-3.7716,-3.7737,-3.7764,-3.7796,-3.781,-3.7845,-3.7887,-3.7887,-3.7934,-3.796,-3.801,-3.8028,-3.8064,-3.8049,-3.8066,-3.807,-3.8073,-3.8077,-3.7966,-3.8072,-3.8071,-3.8071,-3.8071,-3.8071,0,-3.7714,-3.7731,-3.7768,-3.7808,-3.7839,-3.7828,-3.7858,-3.7885,-3.7927,-3.7953,-3.7986,-3.8036,-3.8075,-3.8093,-3.8132,-3.8158,-3.8154,-3.8168,-3.8165,-3.8169,-3.8088,-3.8074,-3.8171,-3.8171,-3.8171,-3.8171,-3.8171,-3.8171,-3.7769,-3.7825,-3.7831,-3.7897,-3.7914,-3.796,-3.7978,-3.8003,-3.8023,-3.8079,-3.8113,-3.8124,-3.8147,-3.8188,-3.8224,-3.8228,-3.8242,-3.8258,-3.826,-3.8184,-3.8174,-3.8164,-3.8151,-3.8262,-3.8262,-3.8337,-3.8338,-3.8338]},{"header":{"parameterUnit":"m.s-1","parameterCategory":1,"la1":30.2991,"la2":30.254,"lo1":-89.0895,"lo2":-89.0444,"dy":0.0017,"dx":0.0017,"nx":28,"ny":28,"refTime":"2024-04-01T21:00:00:Z","depth":0,"parameterNumber":3,"parameterNumberName":"V-component_of_WINDS"},"data":[0,0,0,0,0,0,0,0,0,0,0,0,0,0,0,0,0,0,0,0,0,0,0,0,0,0,0,0,0,0,0,0,0,0,0,0,0,0,0,0,0,0,0,0,0,0,0,0,0,0,0,0,0,0,0,0,0,0,3.1864,3.1864,0,3.1906,3.1906,3.1906,3.1959,3.196,3.196,3.1961,3.2001,3.2001,3.2002,0,0,0,0,0,0,0,0,0,0,0,0,0,3.1829,3.183,3.1864,3.1864,3.1865,3.1905,3.1906,3.1907,3.1959,3.196,3.1961,3.1962,3.2001,3.2001,3.2002,0,0,0,0,0,0,0,0,0,0,0,0,0,3.1855,3.183,3.1864,3.1896,3.1899,3.1905,3.1906,3.1907,3.1958,3.196,3.1961,3.1962,3.2001,3.2001,3.2002,3.1979,0,0,3.2003,3.2003,0,0,0,0,0,0,0,0,3.1853,3.1856,3.1891,3.1894,3.1897,3.1928,3.1909,3.1931,3.1958,3.1936,3.1961,3.1963,3.1976,3.1978,3.1983,3.1981,3.1983,3.2003,3.2003,3.2004,3.2004,0,0,0,0,0,0,0,3.1851,3.1855,3.188,3.1891,3.1895,3.1908,3.1913,3.1913,3.1948,3.1938,3.1942,3.1946,3.1978,3.1983,3.1985,3.1983,3.2003,3.2003,3.2004,3.2004,3.1968,3.1967,0,0,0,0,0,0,3.1845,3.1853,3.1879,3.1882,3.1878,3.1908,3.1913,3.1917,3.1948,3.1954,3.1945,3.1948,3.1981,3.1984,3.1986,3.1964,3.2004,3.2004,3.2004,3.1969,3.1968,3.1966,0,0,0,0,0,0,3.1844,3.1847,3.1877,3.1868,3.1873,3.1907,3.1911,3.1917,3.1922,3.1954,3.196,3.1944,3.1982,3.1986,3.1982,3.1966,3.2004,3.2005,3.1971,3.1969,3.1967,3.1918,0,0,0,0,0,0,3.1843,3.1846,3.1838,3.1868,3.1873,3.1872,3.191,3.1917,3.1923,3.1928,3.1954,3.196,3.1984,3.1981,3.1982,3.1968,3.2005,3.1972,3.197,3.1968,3.1922,3.1915,3.191,0,0,0,0,0,3.1841,3.1821,3.1837,3.184,3.1864,3.1871,3.1874,3.1903,3.1922,3.1914,3.1935,3.1959,3.1967,3.198,3.1982,3.1967,3.1973,3.197,3.1968,3.1924,3.1916,3.191,0,0,0,0,0,0,3.1787,3.1826,3.1844,3.1833,3.1848,3.188,3.1871,3.1893,3.1903,3.1907,3.1942,3.1947,3.194,3.1953,3.1966,3.1948,3.1974,3.1972,3.194,3.1933,3.1927,3.1925,3.2005,0,0,0,0,0,3.1774,3.1777,3.181,3.1798,3.1805,3.1836,3.184,3.1861,3.1879,3.1885,3.1905,3.1921,3.1927,3.1931,3.1938,3.1923,3.1931,3.1915,3.1909,3.1904,3.1901,3.1897,3.1891,3.1957,3.1957,3.1958,0,0,3.1747,3.1769,3.1768,3.1787,3.1802,3.1805,3.1841,3.1842,3.1844,3.1885,3.1884,3.1899,3.1918,3.1909,3.1907,3.192,3.1885,3.19,3.1896,3.1897,3.1894,3.1888,3.1882,3.1956,3.1956,3.1956,0,0,3.17,3.1715,3.1708,3.1722,3.1744,3.1766,3.1764,3.1793,3.1805,3.1804,3.1836,3.1839,3.1848,3.1862,3.187,3.183,3.1854,3.1831,3.1801,3.1796,3.1791,3.1787,3.1774,3.1769,3.1829,3.1829,3.1829,0,3.1663,3.1669,3.17,3.17,3.1709,3.1747,3.174,3.1752,3.1775,3.178,3.1796,3.1811,3.1826,3.1823,3.1813,3.1818,3.1818,3.1829,3.1789,3.1785,3.1782,3.177,3.1765,3.1826,3.1826,3.1827,3.1827,0,3.1624,3.1627,3.1618,3.1642,3.1649,3.1645,3.1677,3.168,3.1701,3.1721,3.1721,3.1741,3.1755,3.1755,3.1774,3.1755,3.1763,3.1783,3.181,3.1772,3.1762,3.1758,3.1822,3.1823,3.1824,3.1825,0,0,3.1542,3.1585,3.1582,3.1594,3.1623,3.1626,3.1624,3.1639,3.1642,3.1657,3.1658,3.1666,3.1686,3.1695,3.1717,3.1712,3.1683,3.1734,3.1735,3.1725,3.1665,3.1651,3.1645,3.1698,3.1697,3.1697,3.1664,0,3.1502,3.1503,3.1532,3.1525,3.153,3.1567,3.1567,3.1584,3.1603,3.161,3.163,3.1637,3.1661,3.1668,3.1665,3.1687,3.1671,3.1689,3.17,3.17,3.1695,3.164,3.1624,3.1592,3.166,3.1659,3.1659,0,3.1454,3.1469,3.1462,3.1493,3.1496,3.1495,3.1512,3.1518,3.1539,3.1553,3.1565,3.159,3.1591,3.1616,3.1619,3.1631,3.1637,3.1648,3.1648,3.1651,3.1678,3.1643,3.1582,3.1578,3.1653,3.1653,3.1653,0,3.1399,3.1416,3.1415,3.1424,3.146,3.1459,3.1473,3.1496,3.1503,3.1518,3.1524,3.1538,3.1546,3.1556,3.1585,3.1599,3.1585,3.1611,3.1598,3.1597,3.1594,3.1594,3.1535,3.1595,3.1595,3.1595,3.1595,0,3.1351,3.1346,3.1391,3.1391,3.1387,3.1422,3.1417,3.1435,3.1455,3.1459,3.1491,3.1495,3.1531,3.1539,3.1561,3.1561,3.1564,3.1576,3.1582,3.1574,3.1573,3.158,3.1583,3.1594,3.1594,3.1594,3.1594,0,3.1288,3.1318,3.1321,3.1355,3.1364,3.1359,3.1389,3.139,3.1412,3.1417,3.142,3.1454,3.1465,3.1494,3.1511,3.1526,3.1521,3.1532,3.1515,3.1519,3.1505,3.1506,3.1449,3.1444,3.1505,3.1504,3.1504,0,3.1257,3.1255,3.1289,3.1295,3.1309,3.1317,3.1326,3.136,3.1368,3.1393,3.1392,3.1406,3.1419,3.1434,3.146,3.1474,3.1486,3.1465,3.1488,3.1481,3.1488,3.1489,3.149,3.146,3.1459,3.1459,3.1458,0,3.1199,3.1214,3.1226,3.1244,3.1254,3.1269,3.1286,3.1288,3.1327,3.1334,3.1346,3.1356,3.1376,3.1389,3.1408,3.1423,3.1447,3.1451,3.1449,3.1441,3.1433,3.1439,3.1503,3.1452,3.1453,3.1453,3.1454,3.1454,3.1152,3.1153,3.1178,3.1191,3.1208,3.1224,3.1228,3.125,3.1262,3.1281,3.13,3.1311,3.1334,3.1362,3.1375,3.1384,3.1397,3.1393,3.1393,3.1392,3.1389,3.143,3.1387,3.1388,3.1388,3.1388,3.1388,0,3.1098,3.1116,3.1128,3.1152,3.1162,3.1185,3.1205,3.1213,3.1222,3.1242,3.1254,3.127,3.1283,3.1311,3.1327,3.1329,3.1341,3.1333,3.1334,3.1337,3.1376,3.1377,3.1323,3.1323,3.1323,3.1323,3.1323,3.1323,3.1071,3.1074,3.1093,3.1105,3.1124,3.1135,3.1145,3.116,3.1177,3.1193,3.1205,3.1223,3.1247,3.1266,3.128,3.1287,3.1293,3.1281,3.1292,3.1328,3.1334,3.134,3.1342,3.1281,3.1281,3.1254,3.1254,3.1253]}]]